Weather History for Brno, Czech Republic

Change the Weather History Date:

Tuesday, November 27, 2012

  Actual Average Record
Temperature  
Mean Temperature 46 °F -  
Max Temperature 48 °F 36 °F - ()
Min Temperature 44 °F 28 °F - ()
Degree Days  
Heating Degree Days 19    
Moisture  
Dew Point 43 °F    
Average Humidity 87    
Maximum Humidity 93    
Minimum Humidity 76    
Precipitation  
Precipitation 0.00 in 0.04 in - ()
Sea Level Pressure  
Sea Level Pressure 29.73 in    
Wind  
Wind Speed 6 mph ()    
Max Wind Speed 9 mph    
Max Gust Speed -    
Visibility 4.8 miles    
Events      
T = Trace of Precipitation, MM = Missing Value Source: Averaged Metar Reports

Daily Weather History Graph

Daily Weather History Graph

Search for Another Location

Airport:

Trip Planner

Search our weather history database for the weather conditions in past years. The results will help you decide how hot, cold, wet, or windy it might be!

Date:

Astronomy

Nov. 27, 2012 Rise Set
Actual Time 7:21 AM CET 4:00 PM CET
Civil Twilight 6:45 AM CET 4:36 PM CET
Nautical Twilight 6:05 AM CET 5:15 PM CET
Astronomical Twilight 5:27 AM CET 5:54 PM CET
Moon 3:21 PM CET (11/27) 6:07 AM CET (11/27)
Length of Visible Light 9h 51m
Length of Day
8h 38m
Waxing Gibbous, 99% of the Moon is Illuminated
Nov 27
Waxing Gibbous
Nov 28
Full
Dec 6
Last Quarter
Dec 13
New
Dec 20
First Quarter

Hourly Weather History & Observations

Time (CET) Temp. Windchill Dew Point Humidity Pressure Visibility Wind Dir Wind Speed Gust Speed Precip Events Conditions
12:00 AM 46.4 °F 42.4 °F 44.6 °F 93% 29.80 in - ESE 8.1 mph - N/A   Overcast
12:30 AM 46.4 °F 42.4 °F 44.6 °F 93% 29.80 in 2.5 mi SE 8.1 mph - N/A   Overcast
1:00 AM 47 °F - 44 °F 86% 29.81 in 3 mi ESE 6.7 mph - -   Mist
1:00 AM 46.4 °F 43.5 °F 44.6 °F 93% 29.77 in 2.8 mi ESE 5.8 mph - N/A   Overcast
1:30 AM 46.4 °F 42.4 °F 44.6 °F 93% 29.77 in 2.8 mi ESE 8.1 mph - N/A   Overcast
2:00 AM 46.4 °F 42.9 °F 44.6 °F 93% 29.77 in 3.1 mi ESE 6.9 mph - N/A   Overcast
2:30 AM 46.4 °F 42.9 °F 44.6 °F 93% 29.77 in 3.1 mi ESE 6.9 mph - N/A   Overcast
3:00 AM 46.4 °F 41.9 °F 44.6 °F 93% 29.74 in 3.7 mi ESE 9.2 mph - N/A   Overcast
3:30 AM 48.2 °F - 44.6 °F 87% 29.74 in 3.7 mi ESE 8.1 mph - N/A   Overcast
4:00 AM 48.2 °F - 44.6 °F 87% 29.74 in 4.3 mi ESE 5.8 mph - N/A   Overcast
4:30 AM 48.2 °F - 44.6 °F 87% 29.74 in 4.3 mi East 3.5 mph - N/A   Overcast
5:00 AM 48.2 °F - 44.6 °F 87% 29.71 in 5.0 mi East 6.9 mph - N/A   Overcast
5:30 AM 48.2 °F - 44.6 °F 87% 29.71 in 5.6 mi East 3.5 mph - N/A   Overcast
6:00 AM 46.4 °F 44.3 °F 44.6 °F 93% 29.71 in 5.0 mi ENE 4.6 mph - N/A   Mostly Cloudy
6:30 AM 48.2 °F - 44.6 °F 87% 29.71 in 6.2 mi ENE 8.1 mph - N/A   Mostly Cloudy
7:00 AM 47 °F - 44 °F 84% 29.75 in 7 mi East 8.9 mph - -   Overcast
7:00 AM 48.2 °F - 42.8 °F 82% 29.71 in 6.2 mi East 6.9 mph - N/A   Overcast
7:30 AM 48.2 °F - 42.8 °F 82% 29.74 in 6.2 mi East 4.6 mph - N/A   Overcast
8:00 AM 48.2 °F - 42.8 °F 82% 29.74 in 6.2 mi East 6.9 mph - N/A   Overcast
8:30 AM 48.2 °F - 42.8 °F 82% 29.74 in 6.2 mi ESE 8.1 mph - N/A   Overcast
9:00 AM 48.2 °F - 42.8 °F 82% 29.74 in 6.2 mi ESE 6.9 mph - N/A   Overcast
9:30 AM 48.2 °F - 42.8 °F 82% 29.74 in 6.2 mi ESE 8.1 mph - N/A   Overcast
10:00 AM 48.2 °F - 42.8 °F 82% 29.74 in 6.2 mi SE 9.2 mph - N/A   Overcast
10:30 AM 48.2 °F - 42.8 °F 82% 29.74 in 6.2 mi SE 6.9 mph - N/A   Overcast
11:00 AM 48.2 °F - 42.8 °F 82% 29.74 in 6.2 mi ESE 5.8 mph - N/A   Overcast
11:30 AM 48.2 °F - 42.8 °F 82% 29.74 in 6.2 mi SE 5.8 mph - N/A   Overcast
12:00 PM 48.2 °F - 42.8 °F 82% 29.71 in 6.2 mi SE 6.9 mph - N/A   Overcast
12:30 PM 48.2 °F - 42.8 °F 82% 29.71 in 6.2 mi SE 5.8 mph - N/A   Overcast
1:00 PM 49 °F - 44 °F 76% 29.74 in 9 mi SSE 4.5 mph - -   Overcast
1:00 PM 48.2 °F - 42.8 °F 82% 29.71 in 6.2 mi SSE 4.6 mph - N/A   Overcast
1:30 PM 48.2 °F - 42.8 °F 82% 29.71 in 6.2 mi South 2.3 mph - N/A   Overcast
2:00 PM 48.2 °F - 42.8 °F 82% 29.71 in 6.2 mi SW 3.5 mph - N/A   Overcast
2:30 PM 48.2 °F - 42.8 °F 82% 29.71 in 6.2 mi Variable 2.3 mph - N/A   Overcast
3:00 PM 48.2 °F - 42.8 °F 82% 29.71 in 6.2 mi Variable 2.3 mph - N/A   Overcast
3:14 PM 46.4 °F 42.9 °F 42.8 °F 87% 29.71 in 6.2 mi SSW 6.9 mph - N/A   Overcast
3:30 PM 46.4 °F 43.5 °F 42.8 °F 87% 29.71 in 6.2 mi SSW 5.8 mph - N/A   Overcast
4:00 PM 46.4 °F 43.5 °F 42.8 °F 87% 29.71 in 3.7 mi SSW 5.8 mph - N/A   Overcast
4:30 PM 46.4 °F 45.2 °F 42.8 °F 87% 29.71 in 3.7 mi South 3.5 mph - N/A   Overcast
5:00 PM 46.4 °F - 42.8 °F 87% 29.71 in 3.7 mi SSE 2.3 mph - N/A   Overcast
5:30 PM 46.4 °F 44.3 °F 42.8 °F 87% 29.71 in 3.7 mi SE 4.6 mph - N/A   Overcast
6:00 PM 46.4 °F 42.9 °F 42.8 °F 87% 29.71 in 4.3 mi SSE 6.9 mph - N/A   Overcast
6:30 PM 44.6 °F 40.7 °F 42.8 °F 93% 29.71 in 4.3 mi East 6.9 mph - N/A   Overcast
7:00 PM 46 °F - 42 °F 83% 29.73 in 4 mi East 6.7 mph - -   Mist
7:00 PM 44.6 °F 40.7 °F 42.8 °F 93% 29.71 in 4.3 mi East 6.9 mph - N/A   Overcast
7:30 PM 44.6 °F 42.2 °F 42.8 °F 93% 29.71 in 3.7 mi ESE 4.6 mph - N/A   Overcast
8:00 PM 44.6 °F 42.2 °F 42.8 °F 93% 29.71 in 3.7 mi East 4.6 mph - N/A   Overcast
8:30 PM 44.6 °F 43.1 °F 42.8 °F 93% 29.71 in 3.7 mi East 3.5 mph - N/A   Overcast
9:00 PM 44.6 °F 42.2 °F 42.8 °F 93% 29.71 in 3.1 mi ESE 4.6 mph - N/A   Overcast
9:30 PM 44.6 °F 43.1 °F 42.8 °F 93% 29.71 in 3.1 mi South 3.5 mph - N/A   Overcast
10:00 PM 44.6 °F - 42.8 °F 93% 29.71 in 3.1 mi South 2.3 mph - N/A   Overcast
10:30 PM 44.6 °F - 42.8 °F 93% 29.68 in 3.1 mi Calm Calm - N/A   Overcast
11:00 PM 44.6 °F 43.1 °F 42.8 °F 93% 29.68 in 2.5 mi NE 3.5 mph - N/A   Overcast
11:30 PM 44.6 °F - 42.8 °F 93% 29.68 in 2.5 mi NNW 2.3 mph - N/A   Overcast